Flag for Estonia Weather past 2 weeks in Kohtla-Järve, Estonia

Now
48 °F

Overcast.


Feels Like: 45 °F
Forecast: 39 / 51 °F
Wind: 6 mph from North

Location: Johvi

Current Time: Sep 30, 2014 at 8:53:24 PM

Latest Report: Sep 30, 2014 at 8:00 PM


Visibility: 31 mi

Pressure: 30.23 "Hg

Humidity: 69%

Dew point: 38 °F

Location of Kohtla-JärveLocation

Historic Weather in Kohtla-Järve — Graph

°F

Kohtla-Järve temperature yesterday

Maximum temperature yesterday: 61 °F (at 2:00 PM)
Minimum temperature yesterday: 49 °F (at 4:00 AM)
Average temperature yesterday: 54 °F

Past Weeks' High & Low Weather Summary

 TemperatureHumidityPressure
High66 °F (Sep 18, 3:00 PM)100% (Sep 16, 2:00 AM)30.46 "Hg (Sep 16, 2:00 AM)
Low33 °F (Sep 24, 7:00 AM)49% (Sep 17, 4:00 PM)29.44 "Hg (Sep 23, 9:00 AM)
Average50 °F82%29.96 "Hg
* Reported Sep 15 7:00 PM — Sep 30 7:00 PM, Kohtla-Järve, Weather by CustomWeather, © 2014

Note: Actual official high and low records may vary slightly from our data, if they occured in-between our weather recording intervals... More about our weather records

Advertising

Kohtla-Järve weather history for previous 24 hours

 ConditionsComfort  
Time TempWeatherWind HumidityBarometerVisibility
7:00 PM
Sep 30
46 °FSprinkles. Overcast.5 mph81%30.21 "Hg22 mi
6:00 PM47 °FLight rain. Overcast.7 mph70%30.19 "Hg22 mi
5:00 PM50 °FPartly sunny.5 mph63%30.16 "Hg17 mi
4:00 PM49 °FOvercast.7 mph64%30.15 "Hg25 mi
3:00 PM50 °FOvercast.7 mph68%30.13 "Hg22 mi
2:00 PM50 °FOvercast.7 mph66%30.11 "Hg25 mi
1:00 PM50 °FOvercast.8 mph72%30.09 "Hg25 mi
12:00 PM50 °FOvercast.7 mph74%30.07 "Hg22 mi
11:00 AM51 °FScattered clouds.9 mph74%30.04 "Hg19 mi
10:00 AM51 °FPassing clouds.7 mph74%30.02 "Hg22 mi
9:00 AM49 °FOvercast.7 mph78%29.99 "Hg22 mi
8:00 AM48 °FPartly sunny.6 mph80%29.97 "Hg8 mi
7:00 AM49 °FPassing clouds.5 mph80%29.95 "Hg25 mi
6:00 AM49 °FOvercast.3 mph82%29.94 "Hg18 mi
5:00 AM46 °FOvercast.3 mph84%29.93 "Hg16 mi
4:00 AM46 °FOvercast.3 mph82%29.93 "Hg18 mi
3:00 AM44 °FPassing clouds.2 mph83%29.93 "Hg18 mi
2:00 AM45 °FClear.2 mph80%29.93 "Hg22 mi
1:00 AM49 °FClear.3 mph69%29.91 "Hg22 mi
12:00 AM50 °FPassing clouds.6 mph63%29.91 "Hg31 mi
11:00 PM
Sep 29
52 °FPassing clouds.7 mph59%29.89 "Hg22 mi
10:00 PM53 °FOvercast.5 mph85%29.88 "Hg17 mi
9:00 PM53 °FOvercast.3 mph84%29.87 "Hg18 mi
8:00 PM53 °FOvercast.3 mph91%29.86 "Hg13 mi
Weather by CustomWeather, © 2014

See weather overviewHow to use our weather pages